Regional Weather Roundup
Issued by NWS Albany, NY

Home | Current Version | Previous Version | Text Only | Print | Product List | Glossary On
Versions: 1 2 3 4 5 6 7 8 9 10 11 12 13 14 15 16 17 18 19 20 21 22 23 24 25 26 27 28
000
ASUS41 KALY 242210
RWRALY

NEW YORK STATE HOURLY WEATHER ROUNDUP
NATIONAL WEATHER SERVICE ALBANY NY
600 PM EDT FRI MAR 24 2017

NOTE: "FAIR" INDICATES FEW OR NO CLOUDS BELOW 12,000 FEET WITH NO
SIGNIFICANT WEATHER AND/OR NO OBSTRUCTIONS TO VISIBILITY.

NYZ032-033-038>043-046>054-057>066-NYZ062>081-082-084-242300-
EAST


CITY           SKY/WX    TMP DP  RH WIND       PRES   REMARKS
ALBANY         CLOUDY    40  31  70 S12G24    30.04F WCI  33
GLENS FALLS    CLOUDY    34  30  85 CALM      30.01F
POUGHKEEPSIE   PTSUNNY   45  32  60 VRB5      30.11F
NEWBURGH       PTSUNNY   46  36  66 S6        30.11F
MONTGOMERY     MOSUNNY   46  32  58 SW10      30.09F
WHITE PLAINS   PTSUNNY   50  29  44 CALM      30.12F
ISLIP          CLOUDY    45  34  65 SW13G24   30.15F
NEW YORK CITY  CLOUDY    58  32  37 SW9       30.12F
CENTRAL PARK   CLOUDY    56  32  40 MISG      30.15F
$$

NYZ005>009-017-018-044>046-055-056-242300-
CENTRAL


CITY           SKY/WX    TMP DP  RH WIND       PRES   REMARKS
FULTON         CLOUDY    43  36  76 E3        29.95S
SYRACUSE       CLOUDY    47  38  71 S12       29.93F
ROME           CLOUDY    41  35  79 E8        29.99F
ELMIRA         SUNNY     60  39  45 S5        29.97S
BINGHAMTON     CLOUDY    43  34  70 S8        30.01F
MONTICELLO     MOSUNNY   37  37 100 NE5       30.09F WCI  34
$$

NYZ026>034-041>043-087-242300-
NORTH


CITY           SKY/WX    TMP DP  RH WIND       PRES   REMARKS
WATERTOWN      CLOUDY    41  37  86 W6        29.96R
FORT DRUM      NOT AVBL
MASSENA        RAIN      33  32  96 NE3       30.00S FOG
SARANAC LAKE   CLOUDY    33  33 100 W3        29.92S FOG
PLATTSBURGH    MIX PCPN  32  31  96 S6        29.99R FOG     WCI  26
$$

NYZ001>004-010>016-019>021-085-242300-
WEST


CITY           SKY/WX    TMP DP  RH WIND       PRES   REMARKS
NIAGARA FALLS  CLOUDY    62  48  60 SW14      29.92S
BUFFALO        CLOUDY    58  47  66 SW15G24   29.94R
DUNKIRK        CLOUDY    52  43  71 SW10      29.98R
JAMESTOWN      PTSUNNY   64  48  55 SW15      29.99R
WELLSVILLE     MOSUNNY   65  45  48 W8G22     29.98R
ROCHESTER      CLOUDY    59  47  64 W10       29.94R
PENN YAN       CLOUDY    51  41  68 CALM      29.95S
$$

             KEY
       WCI = WIND CHILL INDEX
       VSB = VISIBILITY
       HX  = HEAT INDEX
$$




USA.gov is the U.S. government's official web portal to all federal, state and local government web resources and services.